Location: City of Moscow
(46.7306°N, 116.9989°W)
Time: 15:04:18
(UTC+00:00)

CUBEBUG 2 - Pass Details

Date: 24 April 2026
Orbit: 546 x 628 km, 97.9° (Epoch: 15 May)

Event Time Altitude Azimuth Distance (km) Brightness Sun altitude
Rises 10:05:08 0° 15° (NNE) 2,837 ? -22.7°
Reaches altitude 10° 10:07:21 10° 19° (NNE) 1,917 ? -22.5°
Maximum altitude 10:11:28 65° 101° (ESE) 636 ? -22.0°
Enters shadow 10:12:09 54° 151° (SSE) 700 ? -22.0°
